Overview Statistics Trail Chart Weather Telemetry Raw packets
 

This is the latest recevied weather packets stored in our database for station/object VE6HFD-WX. If no packets are shown the sender has not sent any weather packets the latest 10 day(s).

<< 92 93 94 95 96 97 98 >>
Time Temp. Humidity Pressure Rain* Wind** Luminosity Snow
1777324391 2.22° C 58% 1019.9 hPa 0 mm - - -
1777324061 2.78° C 56% 1019.9 hPa 0 mm - - -
1777323731 2.78° C 56% 1022.3 hPa 0 mm - - -
1777321908 2.22° C 58% 1020 hPa 0 mm - - -
1777321610 2.22° C 59% 1020.1 hPa 0 mm - - -
1777321308 1.67° C 59% 1020.1 hPa 0 mm - - -
1777320978 2.22° C 62% 1020.1 hPa 0 mm - - -
1777320678 1.67° C 61% 1020.2 hPa 0 mm - - -
1777320348 1.11° C 64% 1020.3 hPa 0 mm - - -
1777319763 1.11° C 63% 1020.3 hPa 0 mm - - -
1777319463 1.11° C 63% 1020.3 hPa 0 mm - - -
1777319133 1.11° C 63% 1020.4 hPa 0 mm - - -
1777318833 1.11° C 61% 1020.5 hPa 0 mm - - -
1777318503 1.11° C 62% 1020.5 hPa 0 mm - - -
1777318186 0.56° C 63% 1020.5 hPa 0 mm - - -
1777317821 0.56° C 63% 1020.5 hPa 0 mm - - -
1777317521 0.56° C 64% 1020.6 hPa 0 mm - - -
1777317374 0.56° C 64% 1020.6 hPa 0 mm - - -
1777317044 0° C 64% 1020.6 hPa 0 mm - - -
1777316652 0° C 66% 1020.6 hPa 0 mm - - -
1777316338 0° C 65% 1020.7 hPa 0 mm - - -
1777316008 0° C 65% 1020.7 hPa 0 mm - - -
1777315708 0° C 65% 1020.8 hPa 0 mm - - -
1777315378 0° C 64% 1020.9 hPa 0 mm - - -
1777315048 0° C 66% 1020.8 hPa 0 mm - - -

* Rain latest hour (hover to see other rain measurements)
** Current wind speed in m/s (hover to see current wind gust speed)